Location: ?????????
(54.7630°N, 39.4991°E)
Time: 05:24:49
(UTC+00:00)

Terra - Pass Details

Date: 14 April 2026
Orbit: 688 x 691 km, 97.9° (Epoch: 10 May)

Event Time Altitude Azimuth Distance (km) Brightness Sun altitude
Exits shadow 17:36:02 - 168° (SSE) 2,695 4.4 -10.2°
Reaches altitude 10° 17:37:24 10° 170° (S) 2,139 3.9 -10.4°
Maximum altitude 17:42:05 76° 255° (WSW) 717 2.0 -10.9°
Drops below altitude 10° 17:46:49 10° 343° (NNW) 2,153 5.2 -11.5°
Sets 17:49:05 0° 345° (NNW) 3,074 6.0 -11.8°
